Simultaneous Nadir Overpasses (SNOs) Predictions

Prediction of SNOs between GOES-17 and NOAA-19 Satellite Orbit:

Table of predicted SNOs for the next 14.0 days since TLE Epoch: 11/18/2023
Index Date Time (GOES-17) GOES-17 Lat,Lon NOAA-19 Lat,Lon Distance(km) Time Diff (sec)
1 11/19/2023 15:58:05 0.04,-104.67 0.43,-106.28 184.03 80
2 11/20/2023 15:48:37 0.05,-104.67 -0.28,-103.33 153.11 80
3 11/21/2023 15:36:29 0.05,-104.67 -0.94,-100.37 490.29 80
4 11/23/2023 04:08:35 -0.05,-104.66 -0.81,-108.08 390.10 80
5 11/24/2023 03:56:27 -0.05,-104.66 -0.17,-105.12 53.08 80
6 11/25/2023 03:41:39 -0.05,-104.66 0.53,-102.17 283.97 80
7 11/27/2023 16:01:23 0.05,-104.67 0.57,-106.86 250.07 80
8 11/28/2023 15:51:54 0.05,-104.67 -0.10,-103.90 87.28 80
9 11/29/2023 15:39:47 0.06,-104.67 -0.82,-100.96 424.59 80
10 12/01/2023 04:11:53 -0.06,-104.66 -1.01,-108.65 455.87 80
